User: anonymous
Location: Unspecified
(0.0000°N, 0.0000°E)
Time: 19:32:13
(UTC+02:00)
Language:

ARIANE 5 R/B - Orbit

View from above orbital plane
View from above orbital plane
View from above satellite
View from above satellite

Ground track
Ground track

The orbit data is extracted from the following two-line orbital elements,

1 29646U 06054D   14204.19129249  .00002906  00000-0  10684-2 0  6940
2 29646 002.7143 089.5002 7153535 068.3844 124.6932 02.43563187 65380
Epoch (UTC): 23 July 2014 04:35:27
Eccentricity: 0.7153535
inclination: 2.7143°
perigee height: 264 km
apogee height: 33648 km
right ascension of ascending node: 89.5002°
argument of perigee: 68.3844°
revolutions per day: 2.43563187
mean anomaly at epoch: 124.6932°
orbit number at epoch: 6538

The dashed part of the orbit path shows where the satellite is in the earth's shadow,  

DLR